N9XP-9 Weather Reports


time (UTC)temp
C
wind
direction
speed
KPH
gust
KPH
rain 1hr
cm
rain 24hr
cm
rain mn
cm
humidity
%
barometer
mb
20260510060059 6 106 0.0 0.0 0.00 0.00 0.00 80 1013.1
20260510054558 6 79 0.0 0.0 0.00 0.00 0.00 80 1013.0
20260510053054 7 78 0.0 0.0 0.00 0.00 0.00 77 1012.8
20260510051555 7 77 0.0 0.0 0.00 0.00 0.00 76 1012.6
20260510050050 7 79 0.0 0.0 0.00 0.00 0.00 74 1012.4
20260510044545 8 79 0.0 0.0 0.00 0.00 0.00 71 1012.1
20260510043042 8 79 0.0 0.0 0.00 0.00 0.00 68 1011.8
20260510041537 9 80 0.0 0.0 0.00 0.00 0.00 65 1011.4
20260510040037 9 81 0.0 0.0 0.00 0.00 0.00 63 1011.2
20260510034533 10 79 0.0 1.6 0.00 0.00 0.00 60 1011.1
20260510033036 10 74 0.0 0.0 0.00 0.00 0.00 59 1011.0
20260510031531 11 72 0.0 3.2 0.00 0.00 0.00 57 1010.9
20260510030028 11 35 0.0 1.6 0.00 0.00 0.00 57 1010.7
20260510024527 12 354 0.0 0.0 0.00 0.00 0.00 55 1010.4
20260510023024 12 354 0.0 0.0 0.00 0.00 0.00 53 1010.1
20260510021525 13 36 0.0 8.0 0.00 0.00 0.00 49 1009.6
20260510020017 15 11 0.0 4.8 0.00 0.00 0.00 46 1009.2
20260510014514 16 19 3.2 9.7 0.00 0.00 0.00 40 1008.7
20260510013011 17 322 1.6 9.7 0.00 0.00 0.00 37 1008.3
20260510011509 17 8 0.0 6.4 0.00 0.00 0.00 37 1007.9
20260510010006 18 331 1.6 12.9 0.00 0.00 0.00 37 1007.5
20260510004503 18 326 3.2 14.5 0.00 0.00 0.00 37 1007.2
20260510003107 19 335 1.6 12.9 0.00 0.00 0.00 37 1006.9
20260510001602 19 302 0.0 9.7 0.00 0.00 0.00 36 1006.6
20260510000057 20 188 1.6 6.4 0.00 0.00 0.00 34 1006.2
20260509234611 20 319 1.6 12.9 0.00 0.00 0.00 34 1006.1
20260509233054 21 255 3.2 8.0 0.00 0.00 0.00 34 1005.9
20260509231601 22 259 1.6 9.7 0.00 0.00 0.00 32 1005.7
20260509230059 22 259 4.8 16.1 0.00 0.00 0.00 33 1005.5
20260509224559 22 257 3.2 11.3 0.00 0.00 0.00 32 1005.3
20260509223059 22 12 3.2 16.1 0.00 0.00 0.00 32 1005.1
20260509221552 22 327 4.8 19.3 0.00 0.00 0.00 30 1005.0
20260509220050 22 196 4.8 16.1 0.00 0.00 0.00 28 1004.9
20260509214549 22 198 4.8 14.5 0.00 0.00 0.00 29 1004.6
20260509213049 23 304 3.2 19.3 0.00 0.00 0.00 31 1004.4
20260509211548 23 221 4.8 29.0 0.00 0.00 0.00 29 1004.4
20260509210057 23 165 6.4 20.9 0.00 0.00 0.00 27 1004.2
20260509204547 23 269 3.2 9.7 0.00 0.00 0.00 28 1003.9
20260509203055 23 145 4.8 16.1 0.00 0.00 0.00 29 1004.1
20260509201546 23 198 3.2 20.9 0.00 0.00 0.00 31 1004.0
20260509200043 23 236 4.8 17.7 0.00 0.00 0.00 29 1004.0
20260509194542 22 280 6.4 14.5 0.00 0.00 0.00 31 1004.3
20260509193041 21 37 6.4 19.3 0.00 0.00 0.00 31 1004.3
20260509191544 22 215 4.8 22.5 0.00 0.00 0.00 31 1004.4
20260509190041 22 174 8.0 20.9 0.00 0.00 0.00 30 1004.2
20260509184546 22 274 1.6 17.7 0.00 0.00 0.00 31 1004.1
20260509183039 22 153 4.8 17.7 0.00 0.00 0.00 32 1004.1
20260509181540 22 41 3.2 11.3 0.00 0.00 0.00 32 1004.1
20260509180105 22 108 3.2 17.7 0.00 0.00 0.00 31 1004.2
20260509174535 22 14 0.0 8.0 0.00 0.00 0.00 34 1004.3
20260509173041 22 236 3.2 14.5 0.00 0.00 0.00 31 1004.3
20260509171541 22 284 3.2 19.3 0.00 0.00 0.00 33 1004.5
20260509170046 22 36 3.2 12.9 0.00 0.00 0.00 36 1004.5
20260509164529 22 139 3.2 16.1 0.00 0.00 0.00 39 1004.4
20260509163027 20 179 3.2 12.9 0.00 0.00 0.00 51 1004.4
20260509161521 20 110 3.2 9.7 0.00 0.00 0.00 54 1004.3
20260509160021 18 122 3.2 16.1 0.00 0.00 0.00 60 1004.5
20260509154518 18 136 4.8 11.3 0.00 0.00 0.00 62 1004.4
20260509153018 17 137 4.8 11.3 0.00 0.00 0.00 65 1004.6
20260509151509 17 163 3.2 14.5 0.00 0.00 0.00 68 1004.5
20260509150007 16 153 3.2 14.5 0.00 0.00 0.00 72 1004.6
20260509144503 16 135 4.8 11.3 0.00 0.00 0.00 73 1004.6
20260509143109 15 124 1.6 12.9 0.00 0.00 0.00 75 1004.6
20260509141556 15 166 3.2 14.5 0.00 0.00 0.00 77 1004.6
20260509140053 14 134 3.2 14.5 0.00 0.00 0.00 79 1004.5
20260509134551 13 191 1.6 14.5 0.00 0.00 0.00 82 1004.6
20260509133104 13 211 3.2 12.9 0.00 0.00 0.00 82 1004.2
20260509131544 13 217 3.2 14.5 0.00 0.00 0.00 84 1004.4
20260509130042 12 131 1.6 16.1 0.00 0.00 0.00 87 1004.5
20260509124540 12 244 4.8 12.9 0.00 0.00 0.00 88 1004.4
20260509123037 11 130 3.2 12.9 0.00 0.00 0.00 90 1004.5
20260509121539 11 181 3.2 9.7 0.00 0.00 0.00 92 1004.4
20260509120035 11 168 1.6 9.7 0.00 0.00 0.00 93 1004.4
20260509114536 10 150 1.6 6.4 0.00 0.00 0.00 94 1004.3
20260509113036 10 149 1.6 6.4 0.00 0.00 0.00 94 1004.1
20260509111533 10 165 0.0 4.8 0.00 0.00 0.00 93 1003.9
20260509110032 10 58 1.6 8.0 0.00 0.00 0.00 93 1003.9
20260509104541 10 141 3.2 6.4 0.00 0.00 0.00 93 1004.1
20260509103034 10 145 0.0 8.0 0.00 0.00 0.00 92 1003.7
20260509101536 10 113 1.6 9.7 0.00 0.00 0.00 94 1003.7
20260509100030 10 148 1.6 6.4 0.00 0.00 0.00 95 1003.8
20260509094533 10 132 1.6 8.0 0.00 0.00 0.00 96 1004.1
20260509093025 10 135 0.0 1.6 0.00 0.00 0.00 95 1004.2
20260509091525 10 139 0.0 3.2 0.00 0.00 0.00 95 1004.5
20260509090020 10 134 0.0 1.6 0.00 0.00 0.00 94 1004.5
20260509084520 10 136 1.6 4.8 0.00 0.00 0.00 94 1004.5
20260509083017 10 155 0.0 4.8 0.00 0.00 0.00 93 1004.5
20260509081523 10 131 0.0 6.4 0.00 0.00 0.00 93 1004.6
20260509080016 10 117 0.0 3.2 0.00 0.00 0.00 93 1004.6
20260509074515 10 105 0.0 1.6 0.00 0.00 0.00 91 1004.6
20260509073030 10 143 0.0 6.4 0.00 0.00 0.00 91 1004.9
20260509071512 11 189 1.6 6.4 0.00 0.00 0.00 90 1004.9
20260509070017 11 155 1.6 6.4 0.00 0.00 0.00 90 1005.2
20260509064505 11 135 1.6 4.8 0.00 0.00 0.00 89 1005.5
20260509063004 11 156 0.0 6.4 0.00 0.00 0.00 89 1005.6
20260509061501 11 169 3.2 6.4 0.00 0.00 0.00 89 1005.7